User: anonymous   Login
Location: Wien
(48.2082°N, 16.3738°E)
Time: 00:39:04
(UTC+01:00)
Language:

CUBEBUG 2 - Orbit

View from above orbital plane
View from above orbital plane
View from above satellite
View from above satellite

Ground track
Ground track

The orbit data is extracted from the following two-line orbital elements,

1 39440U 13066AA  19076.93308934 +.00000240 +00000-0 +40259-4 0  9998
2 39440 097.6015 080.8535 0081021 027.3422 333.2017 14.75807152285094
Epoch (UTC): 17 March 2019 22:23:38
Eccentricity: 0.0081021
inclination: 97.6015°
perigee height: 586 km
apogee height: 699 km
right ascension of ascending node: 80.8535°
argument of perigee: 27.3422°
revolutions per day: 14.75807152
mean anomaly at epoch: 333.2017°
orbit number at epoch: 28509

The dashed part of the orbit path shows where the satellite is in the earth's shadow,  

DLR